Location: Torrington
(42.0650°N, 104.1810°W)
Time: 04:44:54
(UTC-06:00)

Amateur Radio Satellites - All Passes

Search period start: 24 July 2016 04:14
Search period end: 25 July 2016 04:14
Location: Torrington, 42.0650°N, 104.1810°W

Satellite Date Start Highest point End Downlink Frequencies (MHz)
Time Altitude Azimuth
ITAMSAT 1 24 Jul 04:31:55 04:36:58 52° 289° (WNW) 04:41:58 435.822/435.867
ISS 24 Jul 04:32:10 04:35:18 43° 28° (NNE) 04:38:25 145.825
CUBESAT XI-V 24 Jul 04:32:42 04:36:29 25° 67° (ENE) 04:40:15 437.345
KKS-1 24 Jul 04:51:48 04:55:29 26° 265° (W) 04:59:12 437.445
MOZHAYETS 4 24 Jul 05:00:27 05:04:05 22° 266° (W) 05:07:44
AIST 2 24 Jul 05:16:10 05:17:14 11° 36° (NE) 05:18:18 435.215
DANDE 24 Jul 05:20:34 05:26:46 79° 280° (W) 05:31:22 436.750
BEESAT 2 24 Jul 05:21:28 05:25:22 53° 241° (WSW) 05:29:15 435.950
BEESAT 3 24 Jul 05:22:59 05:26:22 27° 246° (WSW) 05:29:42 437.485
Cosmos 2499 24 Jul 05:23:33 05:29:05 21° 281° (W) 05:34:22 435.465 / 435.565
CUSAT 1 24 Jul 05:34:48 05:37:46 18° 284° (WNW) 05:40:19 437.405
STARS 24 Jul 05:41:28 05:44:08 16° 268° (W) 05:46:48 437.465
PCSat 24 Jul 05:42:26 05:47:54 84° 242° (WSW) 05:53:18 145.827
NOAA 18 24 Jul 05:53:28 05:55:16 11° 88° (E) 05:57:05 137.9125
AO-7 24 Jul 05:55:09 06:03:05 49° 297° (WNW) 06:10:58 29.400- 29.500
HORYU 2 24 Jul 06:05:35 06:10:06 89° 285° (WNW) 06:14:34 437.375
ISS 24 Jul 06:08:53 06:11:35 24° 225° (SW) 06:14:17 145.825
CUBESAT XI-V 24 Jul 06:09:32 06:13:43 33° 263° (W) 06:17:54 437.345
STRAND 1 24 Jul 06:14:11 06:18:01 22° 63° (ENE) 06:21:52 437.568
NOAA 15 24 Jul 06:16:51 06:21:14 26° 95° (E) 06:25:35 137.62
LilacSat-2 24 Jul 06:23:58 06:26:44 18° 93° (E) 06:29:28 437.200
GOMX 1 24 Jul 06:29:39 06:33:31 22° 94° (E) 06:37:32 467.674
O/OREOS (USA 219) 24 Jul 06:31:00 06:34:47 25° 58° (ENE) 06:38:35 437.305
DOVE 4 24 Jul 06:41:30 06:44:06 14° 89° (E) 06:46:43 437.250
BRITE-PL 24 Jul 06:46:51 06:51:32 66° 101° (E) 06:56:36 437.365/2234.400
AIST 2 24 Jul 06:52:21 06:56:31 67° 55° (NE) 07:00:40 435.215
Cubesat XI-IV 24 Jul 06:59:34 07:04:47 48° 100° (E) 07:09:55 437.490
RS-15 24 Jul 07:16:56 07:27:55 57° 112° (ESE) 07:39:29 29.354- 29.394
HO-68 24 Jul 07:21:42 07:24:22 12° 87° (E) 07:27:02 435.675
CUTE-I 24 Jul 07:24:17 07:29:40 82° 104° (ESE) 07:35:00 437.470
PRISM 24 Jul 07:26:44 07:28:15 12° 62° (ENE) 07:29:46 437.425
PCSat 24 Jul 07:29:10 07:30:23 11° 259° (WSW) 07:31:36 145.827
NOAA 18 24 Jul 07:31:04 07:36:40 89° 106° (ESE) 07:42:12 137.9125
Cosmos 2491 24 Jul 07:41:33 07:47:37 20° 62° (ENE) 07:53:40 435.465 / 435.565
AO-7 24 Jul 07:51:10 07:53:51 12° 319° (NW) 07:56:31 29.400- 29.500
STRAND 1 24 Jul 07:51:50 07:56:50 50° 260° (W) 08:01:51 437.568
NOAA 15 24 Jul 07:56:14 08:01:06 40° 292° (WNW) 08:05:58 137.62
LilacSat-2 24 Jul 07:57:38 08:01:06 31° 289° (WNW) 08:04:31 437.200
CANX-2 24 Jul 07:58:02 08:00:54 18° 92° (E) 08:03:46 2200.000
GOMX 1 24 Jul 08:07:01 08:11:43 45° 288° (WNW) 08:16:41 467.674
O/OREOS (USA 219) 24 Jul 08:10:09 08:14:13 33° 255° (WSW) 08:18:17 437.305
CUTE 1.7 + AOD 2 24 Jul 08:11:49 08:15:07 22° 94° (E) 08:18:22 437.475
SO-50 24 Jul 08:12:29 08:15:52 19° 110° (ESE) 08:19:14 436.795
DOVE 4 24 Jul 08:17:09 08:22:13 74° 285° (WNW) 08:27:28 437.250
BRITE-PL 24 Jul 08:26:59 08:29:36 15° 296° (WNW) 08:32:20 437.365/2234.400
AIST 2 24 Jul 08:32:53 08:34:26 12° 252° (WSW) 08:35:59 435.215
UWE-3 24 Jul 08:35:51 08:36:18 10° 87° (E) 08:36:46 435.000/436.395/437.385
Cubesat XI-IV 24 Jul 08:40:21 08:44:30 23° 297° (WNW) 08:48:38 437.490
CUBEBUG 2 24 Jul 08:47:57 08:51:38 22° 93° (E) 08:55:14 437.445
CINEMA 3 24 Jul 08:53:43 08:58:46 82° 101° (ESE) 09:03:47 145.822/145.860
SEEDS 24 Jul 08:56:44 09:00:48 49° 99° (E) 09:04:49 437.485
PRISM 24 Jul 08:59:00 09:03:03 63° 259° (WSW) 09:07:06 437.425
HO-68 24 Jul 09:05:59 09:13:13 75° 104° (ESE) 09:20:24 435.675
CUTE-I 24 Jul 09:06:11 09:09:00 15° 301° (WNW) 09:11:49 437.470
UNISAT 6 24 Jul 09:06:12 09:08:35 14° 61° (ENE) 09:11:00 437.425
YUBILEINY 24 Jul 09:12:14 09:19:20 29° 82° (E) 09:26:27 435.215
NOAA 18 24 Jul 09:13:43 09:16:32 14° 303° (WNW) 09:19:20 137.9125
COMPASS 1 24 Jul 09:14:53 09:18:57 55° 100° (E) 09:22:58 437.405
RS-15 24 Jul 09:29:29 09:40:39 50° 317° (NW) 09:52:26 29.354- 29.394
Oscar 11 24 Jul 09:29:35 09:33:11 25° 95° (E) 09:36:45 145.826/435.025
CANX-2 24 Jul 09:32:59 09:36:56 39° 289° (WNW) 09:40:50 2200.000
Cosmos 2491 24 Jul 09:36:55 09:45:43 89° 257° (WSW) 09:54:30 435.465 / 435.565
ANTELSAT 24 Jul 09:42:49 09:46:52 31° 68° (ENE) 09:50:59 437.575/2403.000
AAUSAT CUBESAT 2 24 Jul 09:46:34 09:50:41 80° 284° (WNW) 09:54:47 437.432
CUTE 1.7 + AOD 2 24 Jul 09:47:15 09:51:00 31° 290° (WNW) 09:54:43 437.475
SO-50 24 Jul 09:51:08 09:55:56 57° 307° (NW) 10:00:44 436.795
DOVE 4 24 Jul 09:58:51 09:59:04 10° 301° (WNW) 09:59:17 437.250
M-CUBED/EXP-1 PRIME 24 Jul 10:02:48 10:06:12 20° 98° (E) 10:09:35 437.505
UWE-3 24 Jul 10:08:41 10:13:21 80° 282° (WNW) 10:17:53 435.000/436.395/437.385
QB50P2 24 Jul 10:12:14 10:13:00 10° 61° (ENE) 10:13:46 145.880/145.840
POLYITAN 1 24 Jul 10:14:39 10:15:38 11° 61° (ENE) 10:16:38 437.675
ZACube-1 24 Jul 10:16:53 10:21:27 83° 101° (ESE) 10:25:53 437.345
FUNcube-1 24 Jul 10:17:50 10:22:24 80° 103° (ESE) 10:26:48 145.935
CUBEBUG 2 24 Jul 10:23:57 10:28:22 39° 290° (WNW) 10:32:42 437.445
TIGRISAT 24 Jul 10:24:50 10:29:25 80° 77° (ENE) 10:34:08 435.000
HUMSAT D 24 Jul 10:25:25 10:28:41 21° 94° (E) 10:31:53 437.325/437.525
AUBIESAT-1 24 Jul 10:31:17 10:35:24 31° 101° (E) 10:39:30 437.475
CINEMA 3 24 Jul 10:32:49 10:35:12 13° 299° (WNW) 10:37:36 145.822/145.860
SEEDS 24 Jul 10:33:42 10:36:05 15° 296° (WNW) 10:38:28 437.485
DELFI C3 24 Jul 10:37:15 10:41:10 63° 101° (E) 10:45:03 145.870
UNISAT 6 24 Jul 10:40:08 10:44:42 68° 258° (WSW) 10:49:24 437.425
COMPASS 1 24 Jul 10:52:01 10:54:02 13° 296° (WNW) 10:56:03 437.405
HO-68 24 Jul 10:54:50 11:00:13 23° 303° (WNW) 11:05:35 435.675
NANOSAT C BR1 24 Jul 10:57:57 11:01:34 28° 69° (ENE) 11:05:13 145.865
Cosmos 2504 24 Jul 11:02:40 11:11:02 50° 89° (E) 11:19:26 435.465 / 435.565
DUCHIFAT 1 24 Jul 11:03:47 11:07:28 30° 69° (ENE) 11:11:13 145.980
Oscar 11 24 Jul 11:05:34 11:09:18 29° 291° (WNW) 11:13:00 145.826/435.025
YUBILEINY 24 Jul 11:06:46 11:15:26 63° 282° (WNW) 11:24:14 435.215
QB50P1 24 Jul 11:17:52 11:21:57 49° 73° (ENE) 11:26:05 145.935-145.965
ANTELSAT 24 Jul 11:19:38 11:23:33 27° 265° (W) 11:27:32 437.575/2403.000
POPSAT HIP 1 24 Jul 11:23:55 11:28:04 57° 74° (ENE) 11:32:15 437.405
BUGSAT 1 24 Jul 11:32:14 11:35:42 27° 68° (ENE) 11:39:12 437.445
SO-50 24 Jul 11:35:34 11:37:27 12° 327° (NNW) 11:39:20 436.795
Cosmos 2491 24 Jul 11:35:56 11:41:15 18° 283° (WNW) 11:46:34 435.465 / 435.565
M-CUBED/EXP-1 PRIME 24 Jul 11:36:23 11:40:51 48° 293° (WNW) 11:45:24 437.505
QB50P2 24 Jul 11:43:55 11:48:09 79° 257° (WSW) 11:52:27 145.880/145.840
ESTCUBE 1 24 Jul 11:44:47 11:48:38 28° 96° (E) 11:52:28 437.505/2401.250
POLYITAN 1 24 Jul 11:46:33 11:50:47 78° 256° (WSW) 11:55:06 437.675
JAS-2 24 Jul 11:47:14 11:52:48 37° 69° (ENE) 11:57:51 435.910
RS-15 24 Jul 11:47:43 11:57:07 25° 349° (N) 12:06:46 29.354- 29.394
ZACube-1 24 Jul 11:55:46 11:57:00 11° 300° (WNW) 11:58:14 437.345
FUNcube-1 24 Jul 11:56:30 11:57:56 11° 300° (WNW) 11:59:20 145.935
UKube-1 24 Jul 11:56:37 11:58:05 11° 90° (E) 11:59:33 .
HUMSAT D 24 Jul 12:00:35 12:04:21 32° 290° (WNW) 12:08:03 437.325/437.525
AUBIESAT-1 24 Jul 12:05:44 12:09:45 30° 297° (WNW) 12:13:47 437.475
TIGRISAT 24 Jul 12:05:56 12:06:42 10° 272° (W) 12:07:27 435.000
DELFI C3 24 Jul 12:14:25 12:15:29 11° 297° (WNW) 12:16:35 145.870
VELOX 1 24 Jul 12:15:08 12:19:10 33° 97° (E) 12:23:11 145.980
CUBEBUG 1 24 Jul 12:24:44 12:29:00 49° 100° (E) 12:33:17 437.445
NANOSAT C BR1 24 Jul 12:33:47 12:37:16 25° 265° (W) 12:40:47 145.865
SPROUT 24 Jul 12:34:29 12:38:06 25° 95° (E) 12:41:41 437.525
DUCHIFAT 1 24 Jul 12:39:49 12:43:10 23° 265° (W) 12:46:35 145.980
Oscar 19 24 Jul 12:44:13 12:48:43 32° 67° (ENE) 12:53:13 437.125/150
50 SAT 24 Jul 12:52:23 12:56:00 78° 284° (WNW) 12:59:34 437.505
QB50P1 24 Jul 12:55:40 12:58:00 14° 269° (W) 13:00:22 145.935-145.965
Cosmos 2504 24 Jul 12:56:26 13:04:34 39° 288° (WNW) 13:12:45 435.465 / 435.565
AISAT 24 Jul 12:59:20 13:03:47 77° 285° (WNW) 13:08:14 437.250
POPSAT HIP 1 24 Jul 13:02:21 13:04:13 13° 270° (W) 13:06:04 437.405
BUGSAT 1 24 Jul 13:07:43 13:11:02 24° 265° (W) 13:14:25 437.445
DX 1 24 Jul 13:10:24 13:14:47 84° 286° (WNW) 13:19:10 434.975-435.025
YUBILEINY 24 Jul 13:10:46 13:14:20 13° 305° (NW) 13:17:56 435.215
AIST 1 24 Jul 13:13:09 13:16:19 21° 88° (E) 13:19:29
AO-7 24 Jul 13:15:03 13:18:43 14° 43° (NE) 13:22:24 29.400- 29.500
ESTCUBE 1 24 Jul 13:21:33 13:25:23 28° 292° (WNW) 13:29:13 437.505/2401.250
UKube-1 24 Jul 13:30:14 13:34:32 64° 286° (WNW) 13:38:49 .
JAS-2 24 Jul 13:32:23 13:37:54 32° 263° (W) 13:42:56 435.910
Gurwin Techsat 1B 24 Jul 13:38:22 13:43:25 46° 70° (ENE) 13:48:29 435.225
TISAT 1 24 Jul 13:41:26 13:45:17 32° 97° (E) 13:49:06 437.305
AO-85 24 Jul 13:46:28 13:50:14 19° 110° (ESE) 13:53:54 145.980
VELOX 1 24 Jul 13:51:55 13:55:28 24° 293° (WNW) 13:59:01 145.980
CUBEBUG 1 24 Jul 14:02:08 14:04:54 17° 296° (WNW) 14:07:40 437.445
RS-15 24 Jul 14:04:34 14:15:02 31° 25° (NNE) 14:25:32 29.354- 29.394
SPROUT 24 Jul 14:10:17 14:14:00 29° 291° (WNW) 14:17:42 437.525
BEESAT 24 Jul 14:10:21 14:12:33 13° 90° (E) 14:14:45 436.000
ITAMSAT 1 24 Jul 14:11:30 14:16:06 32° 67° (ENE) 14:20:43 435.822/435.867
Cosmos 2499 24 Jul 14:19:31 14:21:13 11° 72° (ENE) 14:22:54 435.465 / 435.565
Oscar 19 24 Jul 14:23:28 14:27:59 31° 264° (W) 14:32:32 437.125/150
CUSAT 1 24 Jul 14:24:43 14:25:46 11° 74° (ENE) 14:26:53 437.405
ITUPSAT 1 24 Jul 14:30:13 14:33:48 21° 93° (E) 14:37:21 437.325
AIST 1 24 Jul 14:49:54 14:53:42 31° 285° (WNW) 14:57:31
AO-7 24 Jul 15:01:36 15:09:41 56° 65° (ENE) 15:17:48 29.400- 29.500
GONETS M04 24 Jul 15:14:49 15:22:40 40° 86° (E) 15:30:33
TISAT 1 24 Jul 15:17:25 15:20:45 23° 293° (WNW) 15:24:04 437.305
Gurwin Techsat 1B 24 Jul 15:19:24 15:23:33 23° 267° (W) 15:27:45 435.225
SWISSCUBE 24 Jul 15:24:15 15:29:03 83° 105° (ESE) 15:33:47 437.505
AO-85 24 Jul 15:24:58 15:30:19 64° 306° (NW) 15:35:26 145.980
BEESAT 24 Jul 15:46:02 15:50:48 67° 287° (WNW) 15:55:30 436.000
ITAMSAT 1 24 Jul 15:50:51 15:55:31 33° 263° (W) 16:00:12 435.822/435.867
DANDE 24 Jul 15:59:16 16:01:51 60° 79° (E) 16:04:31 436.750
Cosmos 2499 24 Jul 16:03:50 16:12:30 60° 91° (E) 16:21:02 435.465 / 435.565
CUSAT 1 24 Jul 16:05:24 16:07:42 22° 264° (W) 16:10:20 437.405
ITUPSAT 1 24 Jul 16:07:18 16:11:49 42° 290° (WNW) 16:16:17 437.325
RS-15 24 Jul 16:17:43 16:30:08 74° 53° (NE) 16:42:22 29.354- 29.394
KKS-1 24 Jul 16:41:15 16:45:41 57° 101° (E) 16:50:06 437.445
SO-50 24 Jul 16:42:31 16:46:08 22° 42° (NE) 16:49:40 436.795
Cubesat XI-IV 24 Jul 16:46:00 16:48:02 12° 57° (ENE) 16:50:05 437.490
MOZHAYETS 4 24 Jul 16:53:42 16:58:19 84° 100° (E) 17:02:52
AO-7 24 Jul 16:55:20 17:02:44 34° 263° (W) 17:10:12 29.400- 29.500
HORYU 2 24 Jul 17:03:36 17:08:05 88° 72° (ENE) 17:12:37 437.375
SWISSCUBE 24 Jul 17:04:19 17:06:09 12° 301° (WNW) 17:07:57 437.505
LilacSat-2 24 Jul 17:08:12 17:09:17 11° 63° (ENE) 17:10:21 437.200
CUTE-I 24 Jul 17:08:37 17:12:22 20° 61° (ENE) 17:16:07 437.470
AO-85 24 Jul 17:09:03 17:11:43 14° 325° (NW) 17:14:20 145.980
GONETS M04 24 Jul 17:11:08 17:19:20 45° 286° (WNW) 17:27:38
NOAA 18 24 Jul 17:18:42 17:23:09 26° 63° (ENE) 17:27:37 137.9125
STARS 24 Jul 17:28:10 17:32:38 90° 323° (NW) 17:37:05 437.465
NOAA 15 24 Jul 17:37:09 17:42:05 44° 69° (ENE) 17:47:03 137.62
GOMX 1 24 Jul 17:39:20 17:42:22 20° 66° (ENE) 17:45:28 467.674
DOVE 4 24 Jul 17:48:53 17:50:31 12° 60° (ENE) 17:52:11 437.250
HO-68 24 Jul 17:52:54 17:55:20 12° 48° (NE) 17:57:46 435.675
Cosmos 2499 24 Jul 17:58:20 18:06:04 33° 291° (WNW) 18:13:43 435.465 / 435.565
BRITE-PL 24 Jul 17:58:52 18:03:01 75° 76° (ENE) 18:07:11 437.365/2234.400
CUBESAT XI-V 24 Jul 18:04:57 18:09:30 57° 100° (E) 18:14:02 437.345
PHONESAT 2.4 24 Jul 18:11:06 18:13:17 18° 153° (SSE) 18:15:27 2401.200-2431.200
KKS-1 24 Jul 18:19:09 18:21:47 15° 297° (WNW) 18:24:24 437.445
Cubesat XI-IV 24 Jul 18:21:52 18:27:15 83° 75° (ENE) 18:32:40 437.490
SO-50 24 Jul 18:22:26 18:26:58 55° 241° (WSW) 18:31:21 436.795
RS-15 24 Jul 18:31:11 18:41:40 35° 256° (WSW) 18:52:03 29.354- 29.394
MOZHAYETS 4 24 Jul 18:33:29 18:34:47 11° 300° (WNW) 18:36:05
LilacSat-2 24 Jul 18:39:14 18:43:03 61° 260° (W) 18:46:55 437.200
PCSat 24 Jul 18:45:42 18:47:02 11° 101° (ESE) 18:48:22 145.827
CUTE-I 24 Jul 18:46:38 18:51:56 60° 259° (WSW) 18:57:16 437.470
CANX-2 24 Jul 18:51:55 18:54:18 15° 64° (ENE) 18:56:41 2200.000
NOAA 18 24 Jul 18:58:12 19:03:30 47° 260° (W) 19:08:52 137.9125
CUTE 1.7 + AOD 2 24 Jul 19:05:22 19:08:14 18° 65° (ENE) 19:11:06 437.475
BEESAT 3 24 Jul 19:13:15 19:16:56 41° 117° (ESE) 19:20:39 437.485
BEESAT 2 24 Jul 19:14:13 19:17:18 22° 113° (ESE) 19:20:26 435.950
GOMX 1 24 Jul 19:16:28 19:20:15 34° 263° (W) 19:24:09 467.674
NOAA 15 24 Jul 19:17:53 19:22:02 24° 266° (W) 19:26:13 137.62
YUBILEINY 24 Jul 19:22:07 19:26:26 14° 56° (ENE) 19:30:45 435.215
DOVE 4 24 Jul 19:23:22 19:27:34 69° 259° (W) 19:32:01 437.250
HO-68 24 Jul 19:34:34 19:41:33 58° 68° (ENE) 19:48:36 435.675
CUBESAT XI-V 24 Jul 19:43:40 19:46:25 16° 297° (WNW) 19:49:10 437.345
PHONESAT 2.4 24 Jul 19:46:25 19:49:26 51° 169° (S) 19:52:26 2401.200-2431.200
CUBEBUG 2 24 Jul 19:46:37 19:49:55 20° 65° (ENE) 19:53:17 437.445
SEEDS 24 Jul 19:48:41 19:52:33 36° 71° (ENE) 19:56:26 437.485
CINEMA 3 24 Jul 19:55:31 19:59:56 75° 76° (ENE) 20:04:38 145.822/145.860
STRAND 1 24 Jul 20:01:44 20:06:46 53° 100° (E) 20:11:44 437.568
Cubesat XI-IV 24 Jul 20:05:42 20:07:57 13° 271° (W) 20:10:13 437.490
COMPASS 1 24 Jul 20:05:49 20:09:42 38° 71° (ENE) 20:13:36 437.405
PCSat 24 Jul 20:24:07 20:29:32 84° 119° (ESE) 20:35:00 145.827
Oscar 11 24 Jul 20:24:58 20:28:17 22° 67° (ENE) 20:31:37 145.826/435.025
CANX-2 24 Jul 20:25:31 20:29:43 53° 261° (W) 20:33:55 2200.000
AAUSAT CUBESAT 2 24 Jul 20:36:42 20:40:51 69° 75° (ENE) 20:44:59 437.432
CUTE 1.7 + AOD 2 24 Jul 20:39:40 20:43:45 42° 262° (W) 20:47:50 437.475
PRISM 24 Jul 20:41:05 20:43:41 16° 93° (E) 20:46:16 437.425
O/OREOS (USA 219) 24 Jul 20:44:02 20:47:41 25° 103° (ESE) 20:51:21 437.305
Cosmos 2491 24 Jul 20:44:58 20:51:01 22° 79° (E) 20:57:04 435.465 / 435.565
M-CUBED/EXP-1 PRIME 24 Jul 20:50:00 20:52:52 21° 60° (ENE) 20:55:54 437.505
BEESAT 2 24 Jul 20:51:21 20:54:58 34° 310° (NW) 20:58:37 435.950
BEESAT 3 24 Jul 20:51:46 20:54:47 21° 315° (NW) 20:57:48 437.485
AIST 2 24 Jul 20:52:42 20:54:19 12° 108° (ESE) 20:55:56 435.215
Cosmos 2504 24 Jul 20:56:45 21:01:54 17° 59° (ENE) 21:06:49 435.465 / 435.565
UWE-3 24 Jul 21:05:23 21:09:55 85° 80° (E) 21:14:36 435.000/436.395/437.385
ZACube-1 24 Jul 21:12:25 21:16:53 67° 75° (ENE) 21:21:28 437.345
FUNcube-1 24 Jul 21:13:06 21:17:33 64° 74° (ENE) 21:22:05 145.935
YUBILEINY 24 Jul 21:16:18 21:25:10 68° 79° (E) 21:33:54 435.215
HUMSAT D 24 Jul 21:17:27 21:20:18 18° 65° (ENE) 21:23:10 437.325/437.525
AUBIESAT-1 24 Jul 21:17:52 21:21:18 34° 64° (ENE) 21:25:00 437.475
CUBEBUG 2 24 Jul 21:21:50 21:26:11 44° 262° (W) 21:30:40 437.445
PHONESAT 2.4 24 Jul 21:22:46 21:25:50 61° 185° (S) 21:28:52 2401.200-2431.200
DELFI C3 24 Jul 21:23:24 21:27:05 37° 71° (ENE) 21:30:46 145.870
HO-68 24 Jul 21:23:41 21:29:37 28° 266° (W) 21:35:37 435.675
SEEDS 24 Jul 21:25:15 21:28:21 20° 267° (W) 21:31:27 437.485
CINEMA 3 24 Jul 21:36:49 21:37:43 10° 273° (W) 21:38:37 145.822/145.860
STRAND 1 24 Jul 21:41:53 21:45:32 20° 297° (WNW) 21:49:09 437.568
COMPASS 1 24 Jul 21:42:32 21:45:24 18° 267° (W) 21:48:16 437.405
Oscar 11 24 Jul 22:00:12 22:04:12 35° 263° (W) 22:08:13 145.826/435.025
PCSat 24 Jul 22:09:56 22:13:38 18° 318° (NW) 22:17:21 145.827
PRISM 24 Jul 22:15:19 22:19:09 40° 289° (WNW) 22:23:00 437.425
TIGRISAT 24 Jul 22:17:15 22:20:16 17° 91° (E) 22:23:12 435.000
AO-85 24 Jul 22:17:24 22:20:32 18° 39° (NE) 22:23:29 145.980
O/OREOS (USA 219) 24 Jul 22:22:57 22:26:56 31° 300° (WNW) 22:30:58 437.305
M-CUBED/EXP-1 PRIME 24 Jul 22:23:58 22:27:13 30° 259° (W) 22:30:44 437.505
AISAT 24 Jul 22:24:32 22:25:22 10° 60° (ENE) 22:26:11 437.250
AIST 2 24 Jul 22:28:10 22:32:14 65° 304° (NW) 22:36:22 435.215
UNISAT 6 24 Jul 22:32:01 22:35:54 25° 94° (E) 22:39:40 437.425
Cosmos 2491 24 Jul 22:38:04 22:46:48 79° 279° (W) 22:55:33 435.465 / 435.565
ESTCUBE 1 24 Jul 22:44:46 22:48:33 27° 68° (ENE) 22:52:21 437.505/2401.250
ISS 24 Jul 22:47:45 22:51:00 78° 144° (SE) 22:54:15 145.825
Cosmos 2504 24 Jul 22:48:24 22:56:44 86° 82° (E) 23:04:24 435.465 / 435.565
HUMSAT D 24 Jul 22:51:27 22:55:34 44° 261° (W) 22:59:44 437.325/437.525
ZACube-1 24 Jul 22:51:51 22:53:38 12° 271° (W) 22:55:27 437.345
UKube-1 24 Jul 22:52:11 22:53:37 12° 61° (ENE) 22:55:04 .
FUNcube-1 24 Jul 22:52:13 22:54:13 13° 271° (W) 22:56:15 145.935
AUBIESAT-1 24 Jul 22:53:20 22:55:56 18° 263° (W) 22:58:40 437.475
PHONESAT 2.4 24 Jul 22:59:25 23:02:05 26° 202° (SSW) 23:04:43 2401.200-2431.200
DELFI C3 24 Jul 22:59:30 23:02:04 17° 267° (W) 23:04:40 145.870
ANTELSAT 24 Jul 23:10:05 23:14:44 63° 100° (E) 23:19:15 437.575/2403.000
VELOX 1 24 Jul 23:12:52 23:16:44 31° 69° (ENE) 23:20:37 145.980
YUBILEINY 24 Jul 23:14:17 23:21:08 26° 279° (W) 23:27:59 435.215
CUBEBUG 1 24 Jul 23:21:00 23:25:03 42° 71° (ENE) 23:29:09 437.445
SPROUT 24 Jul 23:28:45 23:31:59 21° 66° (ENE) 23:35:14 437.525
QB50P2 24 Jul 23:29:33 23:32:17 16° 92° (E) 23:35:01 145.880/145.840
50 SAT 24 Jul 23:30:02 23:33:34 46° 73° (ENE) 23:37:06 437.505
POLYITAN 1 24 Jul 23:32:09 23:34:57 17° 92° (E) 23:37:44 437.675
TIGRISAT 24 Jul 23:52:43 23:57:14 50° 288° (WNW) 00:01:39 435.000
AISAT 24 Jul 23:56:47 00:01:09 83° 257° (WSW) 00:05:34 437.250
AO-85 24 Jul 23:57:07 00:01:28 61° 240° (WSW) 00:05:26 145.980
DX 1 25 Jul 00:05:59 00:10:18 88° 77° (ENE) 00:14:41 434.975-435.025
UNISAT 6 25 Jul 00:08:27 00:12:37 33° 291° (WNW) 00:16:42 437.425
AIST 2 25 Jul 00:10:52 00:11:33 10° 325° (NW) 00:12:15 435.215
NANOSAT C BR1 25 Jul 00:16:49 00:20:59 48° 100° (E) 00:25:07 145.865
ESTCUBE 1 25 Jul 00:21:22 00:25:16 29° 264° (W) 00:29:12 437.505/2401.250
DUCHIFAT 1 25 Jul 00:22:24 00:26:36 52° 100° (E) 00:30:45 145.980
UKube-1 25 Jul 00:24:47 00:29:04 73° 257° (WSW) 00:33:23 .
ISS 25 Jul 00:25:06 00:27:44 22° 342° (NNW) 00:30:23 145.825
TISAT 1 25 Jul 00:33:38 00:37:06 26° 68° (ENE) 00:40:36 437.305
QB50P1 25 Jul 00:37:34 00:41:54 88° 105° (ESE) 00:46:10 145.935-145.965
JAS-2 25 Jul 00:39:53 00:44:22 27° 96° (E) 00:49:06 435.910
Cosmos 2491 25 Jul 00:40:00 00:45:12 17° 301° (WNW) 00:50:26 435.465 / 435.565
POPSAT HIP 1 25 Jul 00:43:46 00:48:06 80° 284° (WNW) 00:52:23 437.405
Cosmos 2504 25 Jul 00:43:50 00:48:50 18° 283° (WNW) 00:53:38 435.465 / 435.565
BUGSAT 1 25 Jul 00:48:04 00:52:09 44° 99° (E) 00:56:13 437.445
ANTELSAT 25 Jul 00:48:17 00:50:53 15° 298° (WNW) 00:53:27 437.575/2403.000
VELOX 1 25 Jul 00:49:39 00:53:12 24° 265° (W) 00:56:48 145.980
AIST 1 25 Jul 00:55:39 00:59:58 62° 81° (E) 01:04:16
SWISSCUBE 25 Jul 00:56:39 00:58:33 12° 59° (ENE) 01:00:26 437.505
CUBEBUG 1 25 Jul 00:58:42 01:01:33 17° 268° (W) 01:04:24 437.445
SPROUT 25 Jul 01:03:49 01:07:43 34° 263° (W) 01:11:39 437.525
QB50P2 25 Jul 01:04:13 01:08:19 44° 288° (WNW) 01:12:22 145.880/145.840
50 SAT 25 Jul 01:06:12 01:07:27 11° 269° (W) 01:08:41 437.505
POLYITAN 1 25 Jul 01:06:52 01:10:58 43° 288° (WNW) 01:15:01 437.675
BEESAT 25 Jul 01:16:55 01:20:02 18° 63° (ENE) 01:23:10 436.000
GONETS M04 25 Jul 01:24:37 01:30:49 20° 62° (ENE) 01:36:59
ITUPSAT 1 25 Jul 01:37:15 01:41:14 26° 66° (ENE) 01:45:13 437.325
NANOSAT C BR1 25 Jul 01:53:41 01:56:19 16° 296° (WNW) 01:58:56 145.865
Gurwin Techsat 1B 25 Jul 01:55:08 01:58:36 17° 91° (E) 02:02:02 435.225
Cosmos 2499 25 Jul 01:56:35 02:02:12 20° 62° (ENE) 02:07:31 435.465 / 435.565
DUCHIFAT 1 25 Jul 01:59:25 02:01:51 15° 297° (WNW) 02:04:18 145.980
ISS 25 Jul 02:03:01 02:05:02 15° 2° (N) 02:07:04 145.825
TISAT 1 25 Jul 02:09:05 02:12:40 27° 264° (W) 02:16:17 437.305
BUGSAT 1 25 Jul 02:24:23 02:27:11 17° 295° (WNW) 02:29:58 437.445
JAS-2 25 Jul 02:24:46 02:29:33 37° 291° (WNW) 02:34:37 435.910
SWISSCUBE 25 Jul 02:30:51 02:35:39 83° 257° (WSW) 02:40:28 437.505
Oscar 19 25 Jul 02:33:38 02:38:50 87° 104° (ESE) 02:44:02 437.125/150
AIST 1 25 Jul 02:35:42 02:36:58 11° 277° (W) 02:38:15
BEESAT 25 Jul 02:52:41 02:57:23 55° 259° (W) 03:02:06 436.000
AO-7 25 Jul 03:04:55 03:09:26 15° 88° (E) 03:13:54 29.400- 29.500
ITUPSAT 1 25 Jul 03:14:32 03:18:54 35° 263° (W) 03:23:19 437.325
GONETS M04 25 Jul 03:20:01 03:28:52 88° 264° (W) 03:37:43
CUSAT 1 25 Jul 03:27:48 03:30:52 19° 95° (E) 03:33:28 437.405
PCSat 25 Jul 03:29:43 03:32:41 15° 38° (NE) 03:35:38 145.827
BEESAT 3 25 Jul 03:30:02 03:33:34 29° 49° (NE) 03:37:04 437.485
BEESAT 2 25 Jul 03:31:28 03:34:22 19° 44° (NE) 03:37:16 435.950
Gurwin Techsat 1B 25 Jul 03:33:42 03:38:57 61° 287° (WNW) 03:44:09 435.225
ISS 25 Jul 03:39:22 03:42:15 28° 22° (NNE) 03:45:08 145.825
KKS-1 25 Jul 03:39:28 03:43:47 54° 72° (ENE) 03:48:08 437.445
Cosmos 2499 25 Jul 03:48:26 03:56:25 80° 265° (W) 04:03:46 435.465 / 435.565
MOZHAYETS 4 25 Jul 03:55:33 04:00:11 82° 74° (ENE) 04:04:51
ITAMSAT 1 25 Jul 04:02:29 04:07:43 86° 104° (ESE) 04:12:53 435.822/435.867
